Time,TemperatureF,DewpointF,PressureIn,WindDirection,WindDirectionDegrees,WindSpeedMPH,WindSpeedGustMPH,Humidity,HourlyPrecipIn,Conditions,Clouds,dailyrainin,SoftwareType,DateUTC
2013-11-07 00:01:00,32.7,22.6,30.18,West,270,0.0,0.0,66,0.00,,,0.33,WUHU21623XXSP,2013-11-07 06:01:00,
2013-11-07 00:06:00,32.7,22.6,30.18,West,270,0.0,0.0,66,0.00,,,0.00,WUHU21623XXSP,2013-11-07 06:06:00,
2013-11-07 00:11:00,32.5,22.4,30.18,West,270,0.0,0.0,66,0.00,,,0.00,WUHU21623XXSP,2013-11-07 06:11:00,
2013-11-07 00:16:00,32.4,22.2,30.19,WNW,292,0.0,0.0,66,0.00,,,0.00,WUHU21623XXSP,2013-11-07 06:16:00,
2013-11-07 00:21:00,32.4,22.6,30.18,WNW,292,0.0,0.0,67,0.00,,,0.00,WUHU21623XXSP,2013-11-07 06:21:00,
2013-11-07 00:26:00,32.4,22.6,30.18,WNW,292,0.0,0.0,67,0.00,,,0.00,WUHU21623XXSP,2013-11-07 06:26:00,
2013-11-07 00:31:00,32.2,22.4,30.19,WSW,247,0.0,0.0,67,0.00,,,0.00,WUHU21623XXSP,2013-11-07 06:31:00,
2013-11-07 00:36:00,32.2,22.4,30.18,West,270,0.0,0.0,67,0.00,,,0.00,WUHU21623XXSP,2013-11-07 06:36:00,
2013-11-07 00:41:00,32.2,22.4,30.19,West,270,0.0,0.0,67,0.00,,,0.00,WUHU21623XXSP,2013-11-07 06:41:00,
2013-11-07 00:46:00,32.0,22.3,30.19,West,270,0.0,0.0,67,0.00,,,0.00,WUHU21623XXSP,2013-11-07 06:46:00,
2013-11-07 00:51:00,32.0,22.6,30.19,WNW,292,0.0,0.0,68,0.00,,,0.00,WUHU21623XXSP,2013-11-07 06:51:00,
2013-11-07 00:56:00,31.6,22.3,30.19,West,270,0.0,0.0,68,0.00,,,0.00,WUHU21623XXSP,2013-11-07 06:56:00,
2013-11-07 01:01:00,31.6,22.3,30.19,NW,315,0.0,1.6,68,0.00,,,0.00,WUHU21623XXSP,2013-11-07 07:01:00,
2013-11-07 01:06:00,31.6,22.3,30.19,WNW,292,0.0,1.6,68,0.00,,,0.00,WUHU21623XXSP,2013-11-07 07:06:00,
2013-11-07 01:11:00,31.8,22.5,30.19,West,270,0.0,0.0,68,0.00,,,0.00,WUHU21623XXSP,2013-11-07 07:11:00,
2013-11-07 01:16:00,31.6,22.3,30.19,West,270,0.0,0.0,68,0.00,,,0.00,WUHU21623XXSP,2013-11-07 07:16:00,
2013-11-07 01:21:00,31.6,22.3,30.19,West,270,0.0,0.0,68,0.00,,,0.00,WUHU21623XXSP,2013-11-07 07:21:00,
2013-11-07 01:26:00,31.5,22.1,30.19,West,270,0.0,0.0,68,0.00,,,0.00,WUHU21623XXSP,2013-11-07 07:26:00,
2013-11-07 01:31:00,31.5,22.5,30.19,WSW,247,0.0,0.0,69,0.00,,,0.00,WUHU21623XXSP,2013-11-07 07:31:00,
2013-11-07 01:36:00,31.3,22.3,30.19,West,270,0.0,0.0,69,0.00,,,0.00,WUHU21623XXSP,2013-11-07 07:36:00,
2013-11-07 01:41:00,31.1,22.1,30.19,WSW,247,0.0,0.0,69,0.00,,,0.00,WUHU21623XXSP,2013-11-07 07:41:00,
2013-11-07 01:46:00,31.1,22.1,30.19,West,270,0.0,0.0,69,0.00,,,0.00,WUHU21623XXSP,2013-11-07 07:46:00,
2013-11-07 01:51:00,30.9,21.9,30.19,WSW,247,0.0,0.0,69,0.00,,,0.00,WUHU21623XXSP,2013-11-07 07:51:00,
2013-11-07 01:56:00,30.7,22.1,30.19,West,270,0.0,0.0,70,0.00,,,0.00,WUHU21623XXSP,2013-11-07 07:56:00,
2013-11-07 02:01:00,30.6,21.9,30.19,West,270,0.0,0.0,70,0.00,,,0.00,WUHU21623XXSP,2013-11-07 08:01:00,
2013-11-07 02:06:00,30.7,22.1,30.19,West,270,0.0,0.0,70,0.00,,,0.00,WUHU21623XXSP,2013-11-07 08:06:00,
2013-11-07 02:11:00,30.6,21.9,30.19,West,270,0.0,0.0,70,0.00,,,0.00,WUHU21623XXSP,2013-11-07 08:11:00,
2013-11-07 02:16:00,30.4,21.7,30.19,West,270,0.0,0.0,70,0.00,,,0.00,WUHU21623XXSP,2013-11-07 08:16:00,
2013-11-07 02:21:00,30.4,21.7,30.19,West,270,0.0,0.0,70,0.00,,,0.00,WUHU21623XXSP,2013-11-07 08:21:00,
2013-11-07 02:26:00,30.0,21.4,30.19,West,270,0.0,0.0,70,0.00,,,0.00,WUHU21623XXSP,2013-11-07 08:26:00,
2013-11-07 02:31:00,29.8,21.5,30.19,WSW,247,0.0,0.0,71,0.00,,,0.00,WUHU21623XXSP,2013-11-07 08:31:00,
2013-11-07 02:36:00,29.8,21.5,30.19,WSW,247,0.0,0.0,71,0.00,,,0.00,WUHU21623XXSP,2013-11-07 08:36:00,
2013-11-07 02:41:00,29.8,21.5,30.19,WSW,247,0.0,0.0,71,0.00,,,0.00,WUHU21623XXSP,2013-11-07 08:41:00,
2013-11-07 02:46:00,29.7,21.4,30.19,WSW,247,0.0,0.0,71,0.00,,,0.00,WUHU21623XXSP,2013-11-07 08:46:00,
2013-11-07 02:51:00,29.5,21.5,30.19,West,270,0.0,0.0,72,0.00,,,0.00,WUHU21623XXSP,2013-11-07 08:51:00,
2013-11-07 02:56:00,29.5,21.5,30.19,West,270,0.0,0.0,72,0.00,,,0.00,WUHU21623XXSP,2013-11-07 08:56:00,
2013-11-07 03:01:00,29.5,21.5,30.19,West,270,0.0,0.0,72,0.00,,,0.00,WUHU21623XXSP,2013-11-07 09:01:00,
2013-11-07 03:06:00,29.3,21.4,30.19,West,270,0.0,0.0,72,0.00,,,0.00,WUHU21623XXSP,2013-11-07 09:06:00,
2013-11-07 03:11:00,29.3,21.4,30.19,West,270,0.0,0.0,72,0.00,,,0.00,WUHU21623XXSP,2013-11-07 09:11:00,
2013-11-07 03:16:00,29.1,21.2,30.19,West,270,0.0,0.0,72,0.00,,,0.00,WUHU21623XXSP,2013-11-07 09:16:00,
2013-11-07 03:21:00,29.1,21.2,30.19,West,270,0.0,0.0,72,0.00,,,0.00,WUHU21623XXSP,2013-11-07 09:21:00,
2013-11-07 03:26:00,28.9,21.3,30.19,West,270,0.0,0.0,73,0.00,,,0.00,WUHU21623XXSP,2013-11-07 09:26:00,
2013-11-07 03:31:00,28.8,21.2,30.19,West,270,0.0,0.0,73,0.00,,,0.00,WUHU21623XXSP,2013-11-07 09:31:00,
2013-11-07 03:36:00,28.8,21.2,30.19,West,270,0.0,0.0,73,0.00,,,0.00,WUHU21623XXSP,2013-11-07 09:36:00,
2013-11-07 03:41:00,28.6,21.0,30.19,West,270,0.0,0.0,73,0.00,,,0.00,WUHU21623XXSP,2013-11-07 09:41:00,
2013-11-07 03:46:00,28.6,21.3,30.19,West,270,0.0,0.0,74,0.00,,,0.00,WUHU21623XXSP,2013-11-07 09:46:00,
2013-11-07 03:51:00,28.6,21.3,30.19,West,270,0.0,0.0,74,0.00,,,0.00,WUHU21623XXSP,2013-11-07 09:51:00,
2013-11-07 03:56:00,28.6,21.3,30.19,West,270,0.0,0.0,74,0.00,,,0.00,WUHU21623XXSP,2013-11-07 09:56:00,
2013-11-07 04:01:00,28.6,21.3,30.19,West,270,0.0,0.0,74,0.00,,,0.00,WUHU21623XXSP,2013-11-07 10:01:00,
2013-11-07 04:06:00,28.4,21.2,30.19,West,270,0.0,0.0,74,0.00,,,0.00,WUHU21623XXSP,2013-11-07 10:06:00,
2013-11-07 04:11:00,28.6,21.3,30.19,West,270,0.0,0.0,74,0.00,,,0.00,WUHU21623XXSP,2013-11-07 10:11:00,
2013-11-07 04:16:00,28.6,21.3,30.19,West,270,0.0,0.0,74,0.00,,,0.00,WUHU21623XXSP,2013-11-07 10:16:00,
2013-11-07 04:21:00,28.4,21.2,30.19,West,270,0.0,0.0,74,0.00,,,0.00,WUHU21623XXSP,2013-11-07 10:21:00,
2013-11-07 04:26:00,28.4,21.2,30.19,West,270,0.0,0.0,74,0.00,,,0.00,WUHU21623XXSP,2013-11-07 10:26:00,
2013-11-07 04:31:00,28.2,21.0,30.19,West,270,0.0,0.0,74,0.00,,,0.00,WUHU21623XXSP,2013-11-07 10:31:00,
2013-11-07 04:36:00,28.0,20.8,30.19,West,270,0.0,0.0,74,0.00,,,0.00,WUHU21623XXSP,2013-11-07 10:36:00,
2013-11-07 04:41:00,28.0,20.8,30.20,West,270,0.0,0.0,74,0.00,,,0.00,WUHU21623XXSP,2013-11-07 10:41:00,
2013-11-07 04:46:00,27.9,20.6,30.19,West,270,0.0,0.0,74,0.00,,,0.00,WUHU21623XXSP,2013-11-07 10:46:00,
2013-11-07 04:51:00,27.9,20.6,30.20,West,270,0.0,0.0,74,0.00,,,0.00,WUHU21623XXSP,2013-11-07 10:51:00,
2013-11-07 04:56:00,27.9,20.6,30.20,West,270,0.0,0.0,74,0.00,,,0.00,WUHU21623XXSP,2013-11-07 10:56:00,
2013-11-07 05:01:00,27.9,20.6,30.19,West,270,0.0,0.0,74,0.00,,,0.00,WUHU21623XXSP,2013-11-07 11:01:00,
2013-11-07 05:06:00,27.9,20.6,30.19,West,270,0.0,0.0,74,0.00,,,0.00,WUHU21623XXSP,2013-11-07 11:06:00,
2013-11-07 05:11:00,27.7,20.4,30.19,West,270,0.0,0.0,74,0.00,,,0.00,WUHU21623XXSP,2013-11-07 11:11:00,
2013-11-07 05:16:00,27.7,20.4,30.19,West,270,0.0,0.0,74,0.00,,,0.00,WUHU21623XXSP,2013-11-07 11:16:00,
2013-11-07 05:21:00,27.5,20.3,30.19,West,270,0.0,0.0,74,0.00,,,0.00,WUHU21623XXSP,2013-11-07 11:21:00,
2013-11-07 05:26:00,27.5,20.3,30.19,West,270,0.0,0.0,74,0.00,,,0.00,WUHU21623XXSP,2013-11-07 11:26:00,
2013-11-07 05:31:00,27.5,20.3,30.19,West,270,0.0,0.0,74,0.00,,,0.00,WUHU21623XXSP,2013-11-07 11:31:00,
2013-11-07 05:34:00,27.3,19.8,30.19,West,270,0.0,0.0,73,0.00,,,0.00,WUHU21623XXSP,2013-11-07 11:34:00,
2013-11-07 05:39:00,27.3,19.8,30.19,West,270,0.0,0.0,73,0.00,,,0.00,WUHU21623XXSP,2013-11-07 11:39:00,
2013-11-07 05:44:00,27.3,19.8,30.19,West,270,0.0,0.0,73,0.00,,,0.00,WUHU21623XXSP,2013-11-07 11:44:00,
2013-11-07 05:49:00,27.1,19.6,30.19,SW,225,0.0,0.0,73,0.00,,,0.00,WUHU21623XXSP,2013-11-07 11:49:00,
2013-11-07 05:54:00,27.0,19.4,30.19,SW,225,0.0,0.0,73,0.00,,,0.00,WUHU21623XXSP,2013-11-07 11:54:00,
2013-11-07 05:59:00,27.1,19.6,30.19,SW,225,0.0,0.0,73,0.00,,,0.00,WUHU21623XXSP,2013-11-07 11:59:00,
2013-11-07 06:04:00,27.0,19.4,30.19,SW,225,0.0,0.0,73,0.00,,,0.00,WUHU21623XXSP,2013-11-07 12:04:00,
2013-11-07 06:09:00,27.0,19.4,30.19,SSW,202,0.0,0.0,73,0.00,,,0.00,WUHU21623XXSP,2013-11-07 12:09:00,
2013-11-07 06:14:00,26.8,19.2,30.19,SSW,202,0.0,0.0,73,0.00,,,0.00,WUHU21623XXSP,2013-11-07 12:14:00,
2013-11-07 06:19:00,26.8,19.2,30.19,SSW,202,0.0,0.0,73,0.00,,,0.00,WUHU21623XXSP,2013-11-07 12:19:00,
2013-11-07 06:24:00,26.8,19.2,30.19,SSW,202,0.0,0.0,73,0.00,,,0.00,WUHU21623XXSP,2013-11-07 12:24:00,
2013-11-07 06:29:00,26.6,19.4,30.19,SSW,202,0.0,0.0,74,0.00,,,0.00,WUHU21623XXSP,2013-11-07 12:29:00,
2013-11-07 06:34:00,26.6,19.4,30.19,SSW,202,0.0,0.0,74,0.00,,,0.00,WUHU21623XXSP,2013-11-07 12:34:00,
2013-11-07 06:39:00,26.6,19.4,30.19,SSW,202,0.0,0.0,74,0.00,,,0.00,WUHU21623XXSP,2013-11-07 12:39:00,
2013-11-07 06:44:00,26.6,19.4,30.19,SSW,202,0.0,0.0,74,0.00,,,0.00,WUHU21623XXSP,2013-11-07 12:44:00,
2013-11-07 06:49:00,26.4,19.2,30.19,SSW,202,0.0,0.0,74,0.00,,,0.00,WUHU21623XXSP,2013-11-07 12:49:00,
2013-11-07 06:54:00,26.4,19.2,30.19,SSW,202,0.0,0.0,74,0.00,,,0.00,WUHU21623XXSP,2013-11-07 12:54:00,
2013-11-07 06:59:00,26.4,19.2,30.19,SSW,202,0.0,0.0,74,0.00,,,0.00,WUHU21623XXSP,2013-11-07 12:59:00,
2013-11-07 07:04:00,26.6,19.4,30.19,SSW,202,0.0,0.0,74,0.00,,,0.00,WUHU21623XXSP,2013-11-07 13:04:00,
2013-11-07 07:09:00,26.8,19.9,30.20,SSW,202,0.0,0.0,75,0.00,,,0.00,WUHU21623XXSP,2013-11-07 13:09:00,
2013-11-07 07:14:00,27.0,20.0,30.20,SSW,202,0.0,0.0,75,0.00,,,0.00,WUHU21623XXSP,2013-11-07 13:14:00,
2013-11-07 07:19:00,27.0,20.0,30.20,SSW,202,0.0,0.0,75,0.00,,,0.00,WUHU21623XXSP,2013-11-07 13:19:00,
2013-11-07 07:24:00,27.1,20.2,30.20,SSW,202,0.0,0.0,75,0.00,,,0.00,WUHU21623XXSP,2013-11-07 13:24:00,
2013-11-07 07:29:00,27.7,20.8,30.20,SSW,202,0.0,0.0,75,0.00,,,0.00,WUHU21623XXSP,2013-11-07 13:29:00,
2013-11-07 07:34:00,28.0,21.4,30.20,SSW,202,0.0,0.0,76,0.00,,,0.00,WUHU21623XXSP,2013-11-07 13:34:00,
2013-11-07 07:39:00,28.8,22.1,30.20,SSW,202,0.0,0.0,76,0.00,,,0.00,WUHU21623XXSP,2013-11-07 13:39:00,
2013-11-07 07:44:00,29.3,22.6,30.20,South,180,0.0,0.0,76,0.00,,,0.00,WUHU21623XXSP,2013-11-07 13:44:00,
2013-11-07 07:49:00,30.0,23.6,30.20,South,180,0.0,0.0,77,0.00,,,0.00,WUHU21623XXSP,2013-11-07 13:49:00,
2013-11-07 07:54:00,30.7,24.4,30.20,South,180,0.0,0.0,77,0.00,,,0.00,WUHU21623XXSP,2013-11-07 13:54:00,
2013-11-07 07:59:00,31.3,24.6,30.20,South,180,0.0,0.0,76,0.00,,,0.00,WUHU21623XXSP,2013-11-07 13:59:00,
2013-11-07 08:04:00,31.5,24.8,30.20,South,180,0.0,0.0,76,0.00,,,0.00,WUHU21623XXSP,2013-11-07 14:04:00,
2013-11-07 08:09:00,32.2,25.5,30.20,SSW,202,0.0,0.0,76,0.00,,,0.00,WUHU21623XXSP,2013-11-07 14:09:00,
2013-11-07 08:14:00,32.7,26.0,30.20,SSW,202,0.0,0.0,76,0.00,,,0.00,WUHU21623XXSP,2013-11-07 14:14:00,
2013-11-07 08:19:00,33.3,26.4,30.20,South,180,0.4,0.4,76,0.00,,,0.00,WUHU21623XXSP,2013-11-07 14:19:00,
2013-11-07 08:24:00,33.4,26.6,30.20,SSE,157,0.0,0.4,76,0.00,,,0.00,WUHU21623XXSP,2013-11-07 14:24:00,
2013-11-07 08:29:00,33.8,26.6,30.21,SW,225,0.0,0.0,75,0.00,,,0.00,WUHU21623XXSP,2013-11-07 14:29:00,
2013-11-07 08:34:00,34.0,26.8,30.20,SSW,202,0.0,0.0,75,0.00,,,0.00,WUHU21623XXSP,2013-11-07 14:34:00,
2013-11-07 08:39:00,34.5,27.3,30.21,SSW,202,0.0,0.7,75,0.00,,,0.00,WUHU21623XXSP,2013-11-07 14:39:00,
2013-11-07 08:44:00,34.7,27.2,30.21,South,180,2.2,2.2,74,0.00,,,0.00,WUHU21623XXSP,2013-11-07 14:44:00,
2013-11-07 08:49:00,34.7,27.2,30.21,SW,225,0.0,2.2,74,0.00,,,0.00,WUHU21623XXSP,2013-11-07 14:49:00,
2013-11-07 08:54:00,34.5,26.7,30.21,SW,225,0.4,0.7,73,0.00,,,0.00,WUHU21623XXSP,2013-11-07 14:54:00,
2013-11-07 08:59:00,34.3,26.5,30.20,South,180,0.0,0.9,73,0.00,,,0.00,WUHU21623XXSP,2013-11-07 14:59:00,
2013-11-07 09:04:00,34.3,26.5,30.20,SSW,202,1.1,1.1,73,0.00,,,0.00,WUHU21623XXSP,2013-11-07 15:04:00,
2013-11-07 09:09:00,34.5,26.7,30.20,South,180,0.0,1.1,73,0.00,,,0.00,WUHU21623XXSP,2013-11-07 15:09:00,
2013-11-07 09:14:00,34.5,26.7,30.21,South,180,0.0,0.7,73,0.00,,,0.00,WUHU21623XXSP,2013-11-07 15:14:00,
2013-11-07 09:19:00,34.7,26.9,30.21,SW,225,0.0,0.0,73,0.00,,,0.00,WUHU21623XXSP,2013-11-07 15:19:00,
2013-11-07 09:24:00,34.5,26.7,30.21,SW,225,0.0,2.2,73,0.00,,,0.00,WUHU21623XXSP,2013-11-07 15:24:00,
2013-11-07 09:29:00,34.5,26.7,30.20,SW,225,0.0,2.2,73,0.00,,,0.00,WUHU21623XXSP,2013-11-07 15:29:00,
2013-11-07 09:34:00,34.5,27.0,30.20,SW,225,0.0,0.0,74,0.00,,,0.00,WUHU21623XXSP,2013-11-07 15:34:00,
2013-11-07 09:39:00,34.7,27.2,30.20,South,180,0.0,0.0,74,0.00,,,0.00,WUHU21623XXSP,2013-11-07 15:39:00,
2013-11-07 09:44:00,34.5,27.0,30.20,WSW,247,0.0,0.0,74,0.00,,,0.00,WUHU21623XXSP,2013-11-07 15:44:00,
2013-11-07 09:49:00,34.7,27.2,30.21,WSW,247,0.0,0.0,74,0.00,,,0.00,WUHU21623XXSP,2013-11-07 15:49:00,
2013-11-07 09:54:00,34.7,27.5,30.21,WSW,247,0.0,0.0,75,0.00,,,0.00,WUHU21623XXSP,2013-11-07 15:54:00,
2013-11-07 09:59:00,34.9,27.7,30.21,WSW,247,0.0,0.0,75,0.00,,,0.00,WUHU21623XXSP,2013-11-07 15:59:00,
2013-11-07 10:04:00,34.7,27.5,30.21,WSW,247,0.0,3.1,75,0.00,,,0.00,WUHU21623XXSP,2013-11-07 16:04:00,
2013-11-07 10:09:00,34.9,27.7,30.21,WSW,247,0.9,3.1,75,0.00,,,0.00,WUHU21623XXSP,2013-11-07 16:09:00,
2013-11-07 10:14:00,34.7,27.7,30.21,WSW,247,0.0,0.9,75,0.00,,,0.00,WUHU21623XXSP,2013-11-07 16:14:00,
2013-11-07 10:19:00,34.9,27.7,30.22,West,270,1.8,1.8,75,0.00,,,0.00,WUHU21623XXSP,2013-11-07 16:19:00,
2013-11-07 10:24:00,35.1,27.9,30.21,SW,225,0.0,1.8,75,0.00,,,0.00,WUHU21623XXSP,2013-11-07 16:24:00,
2013-11-07 10:29:00,34.9,27.7,30.21,WSW,247,0.0,0.0,75,0.00,,,0.00,WUHU21623XXSP,2013-11-07 16:29:00,
2013-11-07 10:34:00,35.1,27.9,30.21,SW,225,0.0,0.0,75,0.00,,,0.00,WUHU21623XXSP,2013-11-07 16:34:00,
2013-11-07 10:39:00,35.2,28.0,30.21,WSW,247,0.9,0.9,75,0.00,,,0.00,WUHU21623XXSP,2013-11-07 16:39:00,
2013-11-07 10:44:00,35.2,28.0,30.22,SW,225,0.7,0.9,75,0.00,,,0.00,WUHU21623XXSP,2013-11-07 16:44:00,
2013-11-07 10:49:00,35.2,28.0,30.22,SW,225,0.7,0.7,75,0.00,,,0.00,WUHU21623XXSP,2013-11-07 16:49:00,
2013-11-07 10:54:00,35.2,28.0,30.21,SW,225,0.0,0.7,75,0.00,,,0.00,WUHU21623XXSP,2013-11-07 16:54:00,
2013-11-07 10:59:00,35.4,28.2,30.21,West,270,1.1,1.1,75,0.00,,,0.00,WUHU21623XXSP,2013-11-07 16:59:00,
2013-11-07 11:04:00,35.4,28.2,30.21,West,270,0.0,1.1,75,0.00,,,0.00,WUHU21623XXSP,2013-11-07 17:04:00,
2013-11-07 11:09:00,35.2,27.7,30.20,WSW,247,5.1,5.1,74,0.00,,,0.00,WUHU21623XXSP,2013-11-07 17:09:00,
2013-11-07 11:14:00,35.2,27.7,30.20,WSW,247,0.4,5.1,74,0.00,,,0.00,WUHU21623XXSP,2013-11-07 17:14:00,
2013-11-07 11:19:00,35.8,28.3,30.20,West,270,1.3,1.3,74,0.00,,,0.00,WUHU21623XXSP,2013-11-07 17:19:00,
2013-11-07 11:24:00,35.4,27.9,30.20,WSW,247,0.0,3.4,74,0.00,,,0.00,WUHU21623XXSP,2013-11-07 17:24:00,
2013-11-07 11:29:00,35.6,28.1,30.20,West,270,0.0,3.4,74,0.00,,,0.00,WUHU21623XXSP,2013-11-07 17:29:00,
2013-11-07 11:34:00,35.6,28.1,30.20,WSW,247,5.4,5.4,74,0.00,,,0.00,WUHU21623XXSP,2013-11-07 17:34:00,
2013-11-07 11:39:00,35.2,27.7,30.20,WNW,292,2.0,5.4,74,0.00,,,0.00,WUHU21623XXSP,2013-11-07 17:39:00,
2013-11-07 11:44:00,35.2,27.7,30.20,West,270,0.0,3.6,74,0.00,,,0.00,WUHU21623XXSP,2013-11-07 17:44:00,
2013-11-07 11:49:00,35.1,27.5,30.20,West,270,0.0,4.3,74,0.00,,,0.00,WUHU21623XXSP,2013-11-07 17:49:00,
2013-11-07 11:54:00,35.1,27.5,30.20,NW,315,3.4,4.3,74,0.00,,,0.00,WUHU21623XXSP,2013-11-07 17:54:00,
2013-11-07 11:58:00,34.9,27.4,30.20,WNW,292,5.6,5.6,74,0.00,,,0.00,WUHU21623XXSP,2013-11-07 17:58:00,
2013-11-07 12:03:00,35.1,27.9,30.20,West,270,1.3,5.6,75,0.00,,,0.00,WUHU21623XXSP,2013-11-07 18:03:00,
2013-11-07 12:08:00,35.1,27.9,30.20,WNW,292,0.0,6.0,75,0.00,,,0.00,WUHU21623XXSP,2013-11-07 18:08:00,
2013-11-07 12:13:00,34.7,27.5,30.20,West,270,0.9,6.0,75,0.00,,,0.00,WUHU21623XXSP,2013-11-07 18:13:00,
2013-11-07 12:18:00,34.7,27.5,30.20,West,270,0.0,2.0,75,0.00,,,0.00,WUHU21623XXSP,2013-11-07 18:18:00,
2013-11-07 12:23:00,34.7,27.5,30.20,NW,315,2.0,3.8,75,0.00,,,0.00,WUHU21623XXSP,2013-11-07 18:23:00,
2013-11-07 12:28:00,34.7,27.5,30.19,West,270,0.0,4.9,75,0.00,,,0.00,WUHU21623XXSP,2013-11-07 18:28:00,
2013-11-07 12:33:00,34.7,27.5,30.19,West,270,0.0,4.9,75,0.00,,,0.00,WUHU21623XXSP,2013-11-07 18:33:00,
2013-11-07 12:38:00,34.9,27.7,30.19,WNW,292,4.7,4.7,75,0.00,,,0.00,WUHU21623XXSP,2013-11-07 18:38:00,
2013-11-07 12:43:00,35.2,28.0,30.19,WSW,247,1.1,5.8,75,0.00,,,0.00,WUHU21623XXSP,2013-11-07 18:43:00,
2013-11-07 12:48:00,35.4,28.2,30.19,WSW,247,2.9,5.8,75,0.00,,,0.00,WUHU21623XXSP,2013-11-07 18:48:00,
2013-11-07 12:53:00,35.8,28.6,30.19,West,270,3.1,3.1,75,0.00,,,0.00,WUHU21623XXSP,2013-11-07 18:53:00,
2013-11-07 12:58:00,36.0,28.8,30.19,West,270,2.9,3.1,75,0.00,,,0.00,WUHU21623XXSP,2013-11-07 18:58:00,
2013-11-07 13:03:00,36.1,28.6,30.19,West,270,0.0,3.8,74,0.00,,,0.00,WUHU21623XXSP,2013-11-07 19:03:00,
2013-11-07 13:08:00,36.5,29.0,30.20,WSW,247,0.0,4.9,74,0.00,,,0.00,WUHU21623XXSP,2013-11-07 19:08:00,
2013-11-07 13:13:00,36.5,28.7,30.20,WSW,247,2.5,4.9,73,0.00,,,0.00,WUHU21623XXSP,2013-11-07 19:13:00,
2013-11-07 13:18:00,36.5,28.7,30.20,SW,225,0.0,2.5,73,0.00,,,0.00,WUHU21623XXSP,2013-11-07 19:18:00,
2013-11-07 13:23:00,36.5,28.3,30.20,WNW,292,2.5,5.6,72,0.00,,,0.00,WUHU21623XXSP,2013-11-07 19:23:00,
2013-11-07 13:28:00,36.5,28.3,30.20,NW,315,0.0,5.6,72,0.00,,,0.00,WUHU21623XXSP,2013-11-07 19:28:00,
2013-11-07 13:33:00,36.9,28.7,30.20,WNW,292,0.0,6.3,72,0.00,,,0.00,WUHU21623XXSP,2013-11-07 19:33:00,
2013-11-07 13:38:00,37.2,28.7,30.19,West,270,9.2,9.2,71,0.00,,,0.00,WUHU21623XXSP,2013-11-07 19:38:00,
2013-11-07 13:43:00,37.2,28.4,30.19,SSW,202,2.9,9.2,70,0.00,,,0.00,WUHU21623XXSP,2013-11-07 19:43:00,
2013-11-07 13:48:00,37.6,28.7,30.19,WNW,292,0.7,5.6,70,0.00,,,0.00,WUHU21623XXSP,2013-11-07 19:48:00,
2013-11-07 13:53:00,38.3,29.7,30.19,WNW,292,5.4,5.4,71,0.00,,,0.00,WUHU21623XXSP,2013-11-07 19:53:00,
2013-11-07 13:58:00,38.5,29.6,30.19,NW,315,6.3,6.5,70,0.00,,,0.00,WUHU21623XXSP,2013-11-07 19:58:00,
2013-11-07 14:03:00,38.8,29.5,30.19,West,270,0.0,6.5,69,0.00,,,0.00,WUHU21623XXSP,2013-11-07 20:03:00,
2013-11-07 14:08:00,39.6,30.2,30.19,NW,315,0.0,4.9,69,0.00,,,0.00,WUHU21623XXSP,2013-11-07 20:08:00,
2013-11-07 14:13:00,40.1,30.3,30.19,West,270,6.5,6.5,68,0.00,,,0.00,WUHU21623XXSP,2013-11-07 20:13:00,
2013-11-07 14:18:00,40.1,30.0,30.19,West,270,0.0,6.5,67,0.00,,,0.00,WUHU21623XXSP,2013-11-07 20:18:00,
2013-11-07 14:23:00,40.8,30.7,30.19,NW,315,0.0,6.0,67,0.00,,,0.00,WUHU21623XXSP,2013-11-07 20:23:00,
2013-11-07 14:28:00,41.4,31.2,30.19,West,270,8.3,8.3,67,0.00,,,0.00,WUHU21623XXSP,2013-11-07 20:28:00,
2013-11-07 14:33:00,41.7,31.2,30.19,West,270,0.0,8.3,66,0.00,,,0.00,WUHU21623XXSP,2013-11-07 20:33:00,
2013-11-07 14:38:00,41.5,30.6,30.19,WSW,247,3.8,4.7,65,0.00,,,0.00,WUHU21623XXSP,2013-11-07 20:38:00,
2013-11-07 14:43:00,41.7,30.4,30.19,WNW,292,0.0,4.7,64,0.00,,,0.00,WUHU21623XXSP,2013-11-07 20:43:00,
2013-11-07 14:48:00,41.9,30.2,30.19,NNW,337,3.4,6.7,63,0.00,,,0.00,WUHU21623XXSP,2013-11-07 20:48:00,
2013-11-07 14:53:00,42.3,29.7,30.18,WNW,292,0.0,6.7,61,0.00,,,0.00,WUHU21623XXSP,2013-11-07 20:53:00,
2013-11-07 14:58:00,43.0,30.4,30.18,WSW,247,0.0,4.0,61,0.00,,,0.00,WUHU21623XXSP,2013-11-07 20:58:00,
2013-11-07 15:03:00,43.0,30.0,30.18,WSW,247,4.5,4.5,60,0.00,,,0.00,WUHU21623XXSP,2013-11-07 21:03:00,
2013-11-07 15:08:00,42.8,29.0,30.19,WSW,247,4.5,6.9,58,0.00,,,0.00,WUHU21623XXSP,2013-11-07 21:08:00,
2013-11-07 15:13:00,43.2,29.3,30.19,WSW,247,0.0,6.9,58,0.00,,,0.00,WUHU21623XXSP,2013-11-07 21:13:00,
2013-11-07 15:18:00,43.5,29.7,30.19,SW,225,0.0,1.6,58,0.00,,,0.00,WUHU21623XXSP,2013-11-07 21:18:00,
2013-11-07 15:23:00,43.3,29.1,30.19,West,270,4.7,4.7,57,0.00,,,0.00,WUHU21623XXSP,2013-11-07 21:23:00,
2013-11-07 15:28:00,43.0,28.7,30.19,West,270,5.8,6.9,57,0.00,,,0.00,WUHU21623XXSP,2013-11-07 21:28:00,
2013-11-07 15:33:00,43.0,28.7,30.20,West,270,0.0,6.9,57,0.00,,,0.00,WUHU21623XXSP,2013-11-07 21:33:00,
2013-11-07 15:38:00,43.9,29.6,30.20,WNW,292,3.6,3.6,57,0.00,,,0.00,WUHU21623XXSP,2013-11-07 21:38:00,
2013-11-07 15:43:00,43.7,29.0,30.19,WSW,247,1.3,3.6,56,0.00,,,0.00,WUHU21623XXSP,2013-11-07 21:43:00,
2013-11-07 15:48:00,43.3,28.6,30.19,West,270,0.0,1.3,56,0.00,,,0.00,WUHU21623XXSP,2013-11-07 21:48:00,
2013-11-07 15:53:00,42.8,28.5,30.19,SW,225,0.0,1.1,57,0.00,,,0.00,WUHU21623XXSP,2013-11-07 21:53:00,
2013-11-07 15:58:00,42.4,28.2,30.19,WSW,247,0.0,1.1,57,0.00,,,0.00,WUHU21623XXSP,2013-11-07 21:58:00,
2013-11-07 16:03:00,41.7,27.5,30.19,WSW,247,0.0,0.0,57,0.00,,,0.00,WUHU21623XXSP,2013-11-07 22:03:00,
2013-11-07 16:08:00,41.4,28.1,30.20,WSW,247,0.0,0.0,59,0.00,,,0.00,WUHU21623XXSP,2013-11-07 22:08:00,
2013-11-07 16:13:00,41.4,28.1,30.19,SW,225,0.0,0.7,59,0.00,,,0.00,WUHU21623XXSP,2013-11-07 22:13:00,
2013-11-07 16:18:00,40.8,28.0,30.20,WSW,247,0.0,0.7,60,0.00,,,0.00,WUHU21623XXSP,2013-11-07 22:18:00,
2013-11-07 16:23:00,40.1,27.3,30.19,SW,225,0.2,0.2,60,0.00,,,0.00,WUHU21623XXSP,2013-11-07 22:23:00,
2013-11-07 16:28:00,39.7,27.3,30.20,SW,225,0.0,0.2,61,0.00,,,0.00,WUHU21623XXSP,2013-11-07 22:28:00,
2013-11-07 16:33:00,39.0,27.0,30.20,West,270,0.9,0.9,62,0.00,,,0.00,WUHU21623XXSP,2013-11-07 22:33:00,
2013-11-07 16:38:00,38.8,27.2,30.20,West,270,0.0,0.9,63,0.00,,,0.00,WUHU21623XXSP,2013-11-07 22:38:00,
2013-11-07 16:43:00,38.7,27.1,30.20,West,270,0.0,0.0,63,0.00,,,0.00,WUHU21623XXSP,2013-11-07 22:43:00,
2013-11-07 16:48:00,38.1,27.0,30.19,West,270,0.0,0.0,64,0.00,,,0.00,WUHU21623XXSP,2013-11-07 22:48:00,
2013-11-07 16:53:00,37.9,27.2,30.20,WSW,247,0.0,0.0,65,0.00,,,0.00,WUHU21623XXSP,2013-11-07 22:53:00,
2013-11-07 16:58:00,37.6,26.9,30.20,WSW,247,0.0,0.0,65,0.00,,,0.00,WUHU21623XXSP,2013-11-07 22:58:00,
2013-11-07 17:03:00,37.0,26.7,30.20,West,270,0.0,0.0,66,0.00,,,0.00,WUHU21623XXSP,2013-11-07 23:03:00,
2013-11-07 17:08:00,37.0,26.7,30.20,West,270,0.0,0.0,66,0.00,,,0.00,WUHU21623XXSP,2013-11-07 23:08:00,
2013-11-07 17:13:00,36.9,26.5,30.20,WSW,247,0.0,0.0,66,0.00,,,0.00,WUHU21623XXSP,2013-11-07 23:13:00,
2013-11-07 17:18:00,36.7,26.7,30.20,WSW,247,0.0,0.0,67,0.00,,,0.00,WUHU21623XXSP,2013-11-07 23:18:00,
2013-11-07 17:23:00,36.5,26.6,30.19,WSW,247,0.0,0.0,67,0.00,,,0.00,WUHU21623XXSP,2013-11-07 23:23:00,
2013-11-07 17:28:00,36.3,26.4,30.19,SW,225,0.0,0.0,67,0.00,,,0.00,WUHU21623XXSP,2013-11-07 23:28:00,
2013-11-07 17:33:00,36.1,26.6,30.20,WSW,247,0.0,0.0,68,0.00,,,0.00,WUHU21623XXSP,2013-11-07 23:33:00,
2013-11-07 17:38:00,36.0,26.4,30.20,SW,225,0.0,0.0,68,0.00,,,0.00,WUHU21623XXSP,2013-11-07 23:38:00,
2013-11-07 17:43:00,35.8,26.2,30.20,SW,225,0.0,0.0,68,0.00,,,0.00,WUHU21623XXSP,2013-11-07 23:43:00,
2013-11-07 17:48:00,35.8,26.2,30.20,SW,225,0.0,0.0,68,0.00,,,0.00,WUHU21623XXSP,2013-11-07 23:48:00,
2013-11-07 17:53:00,35.8,26.2,30.20,SW,225,0.0,0.0,68,0.00,,,0.00,WUHU21623XXSP,2013-11-07 23:53:00,
2013-11-07 17:58:00,35.2,25.7,30.20,SW,225,0.0,0.0,68,0.00,,,0.00,WUHU21623XXSP,2013-11-07 23:58:00,
2013-11-07 18:03:00,35.1,25.5,30.19,SW,225,0.0,0.0,68,0.00,,,0.00,WUHU21623XXSP,2013-11-08 00:03:00,
2013-11-07 18:08:00,35.1,25.9,30.20,SW,225,0.0,0.0,69,0.00,,,0.00,WUHU21623XXSP,2013-11-08 00:08:00,
2013-11-07 18:13:00,34.9,25.7,30.19,SW,225,0.0,0.0,69,0.00,,,0.00,WUHU21623XXSP,2013-11-08 00:13:00,
2013-11-07 18:18:00,34.7,25.5,30.19,SW,225,0.0,0.0,69,0.00,,,0.00,WUHU21623XXSP,2013-11-08 00:18:00,
2013-11-07 18:23:00,34.5,25.3,30.19,SW,225,0.0,0.0,69,0.00,,,0.00,WUHU21623XXSP,2013-11-08 00:23:00,
2013-11-07 18:28:00,34.5,25.3,30.19,SW,225,0.0,0.0,69,0.00,,,0.00,WUHU21623XXSP,2013-11-08 00:28:00,
2013-11-07 18:33:00,34.2,25.0,30.20,SW,225,0.0,0.0,69,0.00,,,0.00,WUHU21623XXSP,2013-11-08 00:33:00,
2013-11-07 18:38:00,34.0,25.2,30.19,SW,225,0.0,0.0,70,0.00,,,0.00,WUHU21623XXSP,2013-11-08 00:38:00,
2013-11-07 18:43:00,34.0,25.2,30.19,SW,225,0.0,0.0,70,0.00,,,0.00,WUHU21623XXSP,2013-11-08 00:43:00,
2013-11-07 18:48:00,33.8,25.2,30.19,SW,225,0.0,0.0,70,0.00,,,0.00,WUHU21623XXSP,2013-11-08 00:48:00,
2013-11-07 18:53:00,33.6,25.1,30.19,SW,225,0.0,0.0,71,0.00,,,0.00,WUHU21623XXSP,2013-11-08 00:53:00,
2013-11-07 18:58:00,33.6,25.1,30.19,SW,225,0.0,0.0,71,0.00,,,0.00,WUHU21623XXSP,2013-11-08 00:58:00,
2013-11-07 19:03:00,33.4,25.0,30.19,SW,225,0.0,0.0,71,0.00,,,0.00,WUHU21623XXSP,2013-11-08 01:03:00,
2013-11-07 19:08:00,33.4,25.0,30.19,SW,225,0.0,0.0,71,0.00,,,0.00,WUHU21623XXSP,2013-11-08 01:08:00,
2013-11-07 19:13:00,33.4,25.3,30.19,SW,225,0.0,0.0,72,0.00,,,0.00,WUHU21623XXSP,2013-11-08 01:13:00,
2013-11-07 19:18:00,33.4,25.3,30.19,SW,225,0.0,0.0,72,0.00,,,0.00,WUHU21623XXSP,2013-11-08 01:18:00,
2013-11-07 19:23:00,33.4,25.6,30.19,SW,225,0.0,0.0,73,0.00,,,0.00,WUHU21623XXSP,2013-11-08 01:23:00,
2013-11-07 19:28:00,33.4,25.6,30.19,SW,225,0.0,0.0,73,0.00,,,0.00,WUHU21623XXSP,2013-11-08 01:28:00,
2013-11-07 19:33:00,33.4,25.6,30.19,West,270,0.0,0.7,73,0.00,,,0.00,WUHU21623XXSP,2013-11-08 01:33:00,
2013-11-07 19:38:00,33.4,26.0,30.19,West,270,0.0,0.7,74,0.00,,,0.00,WUHU21623XXSP,2013-11-08 01:38:00,
2013-11-07 19:43:00,33.6,26.1,30.19,WSW,247,0.0,0.0,74,0.00,,,0.00,WUHU21623XXSP,2013-11-08 01:43:00,
2013-11-07 19:48:00,33.8,26.6,30.19,West,270,0.0,0.0,75,0.00,,,0.00,WUHU21623XXSP,2013-11-08 01:48:00,
2013-11-07 19:53:00,34.0,26.8,30.19,West,270,0.0,0.0,75,0.00,,,0.00,WUHU21623XXSP,2013-11-08 01:53:00,
2013-11-07 19:58:00,34.0,26.8,30.19,West,270,2.7,4.0,75,0.00,,,0.00,WUHU21623XXSP,2013-11-08 01:58:00,
2013-11-07 20:03:00,34.2,27.0,30.19,WSW,247,1.3,4.0,75,0.00,,,0.00,WUHU21623XXSP,2013-11-08 02:03:00,
2013-11-07 20:08:00,34.3,27.1,30.20,WSW,247,2.9,3.1,75,0.00,,,0.00,WUHU21623XXSP,2013-11-08 02:08:00,
2013-11-07 20:13:00,34.5,27.3,30.19,NW,315,2.5,4.5,75,0.00,,,0.00,WUHU21623XXSP,2013-11-08 02:13:00,
2013-11-07 20:18:00,34.5,27.0,30.20,West,270,0.0,4.5,74,0.00,,,0.00,WUHU21623XXSP,2013-11-08 02:18:00,
2013-11-07 20:23:00,34.5,27.0,30.20,West,270,2.2,2.2,74,0.00,,,0.00,WUHU21623XXSP,2013-11-08 02:23:00,
2013-11-07 20:28:00,34.5,27.0,30.20,West,270,0.0,2.2,74,0.00,,,0.00,WUHU21623XXSP,2013-11-08 02:28:00,
2013-11-07 20:33:00,34.5,27.0,30.20,West,270,0.0,1.1,74,0.00,,,0.00,WUHU21623XXSP,2013-11-08 02:33:00,
2013-11-07 20:38:00,34.5,27.0,30.19,WSW,247,0.0,0.0,74,0.00,,,0.00,WUHU21623XXSP,2013-11-08 02:38:00,
2013-11-07 20:43:00,34.5,26.7,30.20,West,270,1.6,1.6,73,0.00,,,0.00,WUHU21623XXSP,2013-11-08 02:43:00,
2013-11-07 20:48:00,34.5,26.7,30.20,WSW,247,0.9,1.6,73,0.00,,,0.00,WUHU21623XXSP,2013-11-08 02:48:00,
2013-11-07 20:53:00,34.3,26.5,30.20,WSW,247,0.0,1.3,73,0.00,,,0.00,WUHU21623XXSP,2013-11-08 02:53:00,
2013-11-07 20:58:00,34.3,26.5,30.20,WSW,247,0.0,1.3,73,0.00,,,0.00,WUHU21623XXSP,2013-11-08 02:58:00,
2013-11-07 21:03:00,34.3,26.5,30.20,West,270,0.9,0.9,73,0.00,,,0.00,WUHU21623XXSP,2013-11-08 03:03:00,
2013-11-07 21:08:00,34.3,26.5,30.20,WNW,292,0.0,0.9,73,0.00,,,0.00,WUHU21623XXSP,2013-11-08 03:08:00,
2013-11-07 21:13:00,34.2,26.3,30.20,WNW,292,0.0,0.0,73,0.00,,,0.00,WUHU21623XXSP,2013-11-08 03:13:00,
2013-11-07 21:18:00,34.2,26.3,30.20,WNW,292,0.0,0.0,73,0.00,,,0.00,WUHU21623XXSP,2013-11-08 03:18:00,
2013-11-07 21:23:00,34.2,26.3,30.21,West,270,0.0,0.0,73,0.00,,,0.00,WUHU21623XXSP,2013-11-08 03:23:00,
2013-11-07 21:28:00,34.2,26.3,30.21,West,270,1.1,1.1,73,0.00,,,0.00,WUHU21623XXSP,2013-11-08 03:28:00,
2013-11-07 21:33:00,34.2,26.3,30.21,West,270,1.3,1.3,73,0.00,,,0.00,WUHU21623XXSP,2013-11-08 03:33:00,
2013-11-07 21:38:00,34.2,26.3,30.21,WNW,292,0.0,3.1,73,0.00,,,0.00,WUHU21623XXSP,2013-11-08 03:38:00,
2013-11-07 21:43:00,34.2,26.3,30.21,WSW,247,0.7,3.1,73,0.00,,,0.00,WUHU21623XXSP,2013-11-08 03:43:00,
2013-11-07 21:48:00,34.0,26.1,30.21,West,270,0.9,1.1,73,0.00,,,0.00,WUHU21623XXSP,2013-11-08 03:48:00,
2013-11-07 21:53:00,34.2,26.0,30.21,West,270,0.0,1.6,72,0.00,,,0.00,WUHU21623XXSP,2013-11-08 03:53:00,
2013-11-07 21:58:00,34.0,25.8,30.22,WSW,247,0.0,1.6,72,0.00,,,0.00,WUHU21623XXSP,2013-11-08 03:58:00,
2013-11-07 22:03:00,34.2,26.0,30.21,West,270,0.0,0.0,72,0.00,,,0.00,WUHU21623XXSP,2013-11-08 04:03:00,
2013-11-07 22:08:00,34.0,25.8,30.22,West,270,0.0,0.0,72,0.00,,,0.00,WUHU21623XXSP,2013-11-08 04:08:00,
2013-11-07 22:13:00,34.0,25.8,30.21,West,270,0.0,0.0,72,0.00,,,0.00,WUHU21623XXSP,2013-11-08 04:13:00,
2013-11-07 22:18:00,33.8,25.6,30.21,WSW,247,0.0,0.0,72,0.00,,,0.00,WUHU21623XXSP,2013-11-08 04:18:00,
2013-11-07 22:23:00,34.0,25.8,30.21,WSW,247,0.9,0.9,72,0.00,,,0.00,WUHU21623XXSP,2013-11-08 04:23:00,
2013-11-07 22:28:00,33.8,25.6,30.21,WNW,292,0.0,0.9,72,0.00,,,0.00,WUHU21623XXSP,2013-11-08 04:28:00,
2013-11-07 22:33:00,34.0,25.8,30.21,WNW,292,0.0,0.0,72,0.00,,,0.00,WUHU21623XXSP,2013-11-08 04:33:00,
2013-11-07 22:38:00,33.8,25.6,30.21,WNW,292,0.0,2.7,72,0.00,,,0.00,WUHU21623XXSP,2013-11-08 04:38:00,
2013-11-07 22:43:00,33.6,25.5,30.21,West,270,1.3,2.7,72,0.00,,,0.00,WUHU21623XXSP,2013-11-08 04:43:00,
2013-11-07 22:48:00,33.4,25.3,30.21,WSW,247,2.0,2.0,72,0.00,,,0.00,WUHU21623XXSP,2013-11-08 04:48:00,
2013-11-07 22:53:00,33.4,25.3,30.21,West,270,0.7,2.0,72,0.00,,,0.00,WUHU21623XXSP,2013-11-08 04:53:00,
2013-11-07 22:58:00,33.4,25.3,30.21,West,270,0.0,0.7,72,0.00,,,0.00,WUHU21623XXSP,2013-11-08 04:58:00,
2013-11-07 23:01:00,33.4,25.3,30.21,WSW,247,0.0,0.7,72,0.00,,,0.00,WUHU21623XXSP,2013-11-08 05:01:00,
2013-11-07 23:02:00,33.4,25.3,30.21,West,270,0.0,0.7,72,0.00,,,0.00,WUHU21623XXSP,2013-11-08 05:02:00,
2013-11-07 23:07:00,33.4,25.3,30.22,West,270,0.0,0.0,72,0.00,,,0.00,WUHU21623XXSP,2013-11-08 05:07:00,
2013-11-07 23:12:00,33.3,25.1,30.22,WSW,247,0.0,0.0,72,0.00,,,0.00,WUHU21623XXSP,2013-11-08 05:12:00,
2013-11-07 23:17:00,33.3,25.1,30.22,WNW,292,0.0,0.0,72,0.00,,,0.00,WUHU21623XXSP,2013-11-08 05:17:00,
2013-11-07 23:22:00,33.3,25.1,30.22,West,270,0.0,0.0,72,0.00,,,0.00,WUHU21623XXSP,2013-11-08 05:22:00,
2013-11-07 23:27:00,33.1,24.7,30.22,WNW,292,0.0,0.0,71,0.00,,,0.00,WUHU21623XXSP,2013-11-08 05:27:00,
2013-11-07 23:32:00,32.9,24.5,30.22,NW,315,0.0,0.0,71,0.00,,,0.00,WUHU21623XXSP,2013-11-08 05:32:00,
2013-11-07 23:37:00,32.9,24.5,30.22,West,270,0.0,0.0,71,0.00,,,0.00,WUHU21623XXSP,2013-11-08 05:37:00,
2013-11-07 23:42:00,32.7,24.3,30.22,West,270,0.0,0.0,71,0.00,,,0.00,WUHU21623XXSP,2013-11-08 05:42:00,
2013-11-07 23:47:00,32.7,24.7,30.22,West,270,0.0,0.0,72,0.00,,,0.00,WUHU21623XXSP,2013-11-08 05:47:00,
2013-11-07 23:52:00,32.5,24.5,30.22,NNW,337,2.5,2.5,72,0.00,,,0.00,WUHU21623XXSP,2013-11-08 05:52:00,
2013-11-07 23:57:00,32.5,24.5,30.23,WNW,292,0.0,2.5,72,0.00,,,0.00,WUHU21623XXSP,2013-11-08 05:57:00,